Regional Weather Roundup
Issued by NWS

Home | Current Version | Previous Version | Text Only | Print | Product List | Glossary Off
Versions: 1 2 3 4 5 6 7 8 9 10 11 12 13 14 15 16 17 18 19 20 21 22 23 24 25 26 27 28 29 30 31 32 33 34 35 36 37 38 39 40 41 42 43 44 45 46 47 48 49 50

000
ASUS45 KABQ 262110
RWRNM
NEW MEXICO REGIONAL WEATHER ROUNDUP
NATIONAL WEATHER SERVICE ALBUQUERQUE NM
300 PM MDT THU MAY 26 2016

NOTE: "FAIR" MEANS FEW OR NO CLOUDS BELOW 12,000 FEET AGL WITH NO
       SIGNIFICANT WEATHER OR OBSTRUCTIONS TO VISION.

      THIS PRODUCT IS RELEASED AS TWO VERSIONS.  ONE VERSION NEAR
      THE TOP OF THE HOUR CONTAINING PRELIMINARY DATA FROM ALBUQUERQUE
      AND OTHER STATIONS.  A FINAL VERSION WITH ADDITIONAL DATA IS
      ISSUED ABOUT 10 MINUTES AFTER THE HOUR.

NMZ501-503-504-510>518-262200-
NORTHWEST PLATEAU/NORTHCENTRAL MOUNTAINS

CITY           SKY/WX    TMP DP  RH WIND       PRES   REMARKS
FARMINGTON     FAIR      69  -8   4 S10       29.87F
LOS ALAMOS     PTSUNNY   63  11  13 S17G31    29.93S
SANTA FE       FAIR      68  12  11 SW13G29   29.88F
TAOS           FAIR      66  18  15 SW18G31   29.88S
ANGEL FIRE     FAIR      62  14  15 SW15G31   29.91F

$$
NMZ402-403-502-505>509-262200-
WESTCENTRAL MOUNTAINS/SOUTHWEST MOUNTAINS

CITY           SKY/WX    TMP DP  RH WIND       PRES   REMARKS
GALLUP         LGT RAIN  56  23  27 W35G45    29.99F
GRANTS         FAIR      64  11  13 SW14G28   29.99S
SILVER CITY      N/A     70  16  12 W18G32    30.00S

$$
NMZ407-409-411-412-262200-
SOUTHERN DESERTS

CITY           SKY/WX    TMP DP  RH WIND       PRES   REMARKS
LORDSBURG      FAIR      77  19  11 W16G28    29.94F
DEMING         FAIR      78  17  10 W14G31    29.91F
LAS CRUCES     FAIR      79  16   9 W16G23    29.91F
HOLLOMAN AFB   FAIR      80  14   8 W15G32    29.87F
ALAMOGORDO     FAIR      81  18   9 SW16G25   29.89F
T OR C         FAIR      77   7   7 W14G28    29.87F

$$
NMZ519>523-262200-
CENTRAL VALLEYS/CENTRAL HIGHLANDS

CITY           SKY/WX    TMP DP  RH WIND       PRES   REMARKS
ALBUQUERQUE    PTSUNNY   71  13  10 W13G22    29.87F
DOUBLE EAGLE   PTSUNNY   68  16  13 SW21G28   29.91S
MORIARTY ARPT  FAIR      69   9  10 SW9G24    29.90F
CLINES CORNERS FAIR      64  10  12 W15G31    29.92F
BELEN          FAIR      76   7   7 SW20G33   29.87F
SOCORRO        FAIR      77   9   7 S16G23    29.85F

$$
NMZ524>526-539-540-262200-
SOUTHCENTRAL MOUNTAINS

CITY           SKY/WX    TMP DP  RH WIND       PRES   REMARKS
RUIDOSO          N/A     66  10  11 SW24G40   30.00S

$$
NMZ527>531-262200-
NORTHEAST HIGHLANDS/NORTHEAST PLAINS

CITY           SKY/WX    TMP DP  RH WIND       PRES   REMARKS
LAS VEGAS      FAIR      69   8   9 SW25G35   29.88F
RATON          FAIR      71  13  10 S23G33    29.78F
CLAYTON        NOT AVBL

$$
NMZ532>537-262200-
EASTCENTRAL PLAINS

CITY           SKY/WX    TMP DP  RH WIND       PRES   REMARKS
TUCUMCARI      FAIR      87  12   6 W29G41    29.74F
CANNON AFB     FAIR      84  23  10 W15G31    29.79F
CLOVIS AIRPORT FAIR      82  27  13 SW14G24   29.80F

$$
NMZ028-029-538-262200-
SOUTHEAST PLAINS

CITY           SKY/WX    TMP DP  RH WIND       PRES   REMARKS
ROSWELL        FAIR      88  16   7 SW23G39   29.78F
ARTESIA        FAIR      88  25  10 W22G36    29.80F
CARLSBAD       FAIR      92  22   8 W28G44    29.77F
HOBBS          MOSUNNY   90  16   6 SW25G41   29.80F


$$



USA.gov is the U.S. government's official web portal to all federal, state and local government web resources and services.